Temperature
15 16 15 14 14 15 14 14 14 16 17 17 17 16 14 13 13 12 12 11 11 11 11 11 11 11 11 10 11 10 11 11 11 10 10 9 8 7 5 4 2 1 -0 -1
13 14 13 12 13 14 14 14 14 14 15 16 14 13 13 13 13 12 11 11 11 10 10 10 9 9 9 9 9 9 10 10 10 9 9 8 7 6 4 3 1 -1 -1 -2
14 12 11 13 15 14 14 14 14 15 16 14 13 13 12 12 12 11 11 10 10 9 9 8 8 8 8 8 8 9 9 9 9 9 8 7 6 5 4 2 0 -1 -2 -3
12 11 10 16 15 14 14 14 14 13 13 13 12 11 11 11 11 10 10 9 9 8 8 7 7 7 7 8 8 8 8 8 8 7 7 6 5 4 3 1 -1 -2 -3 -3
10 12 13 15 14 13 12 14 14 13 12 12 11 11 12 11 10 9 8 8 7 7 7 6 6 6 6 7 7 7 7 7 6 6 5 5 4 3 1 -0 -2 -3 -4 -4
9 9 11 16 13 11 12 13 12 11 11 11 10 10 11 9 8 8 7 7 6 6 6 6 6 6 6 6 6 5 5 5 5 5 4 4 3 2 0 -1 -2 -4 -4 -4
9 9 12 14 10 10 12 14 11 11 10 10 10 9 9 8 7 6 6 6 6 5 5 5 5 5 5 5 4 4 4 4 4 4 3 3 2 1 -1 -2 -3 -4 -5 -5
9 9 10 12 10 12 13 11 10 10 9 8 8 7 7 6 6 6 5 5 5 5 5 5 5 4 3 3 3 3 3 3 3 3 2 2 1 -0 -2 -3 -4 -5 -6 -6
11 12 13 10 11 11 10 9 9 8 7 7 6 6 6 5 5 5 5 5 4 4 4 4 3 3 2 2 2 2 2 2 2 2 2 1 0 -1 -2 -4 -5 -5 -6 -6
10 12 12 11 10 9 9 8 7 7 6 6 5 5 4 4 4 4 4 4 3 3 3 3 2 2 2 1 1 1 1 1 1 1 1 0 -1 -2 -3 -4 -5 -6 -6 -6
10 11 11 10 9 8 7 7 6 6 5 5 4 4 4 4 4 3 3 3 3 2 2 1 1 1 1 1 0 0 0 0 0 -0 -0 -1 -2 -2 -3 -4 -4 -5 -6 -6
10 11 10 9 8 7 6 5 5 4 4 4 4 3 3 3 3 3 3 2 2 1 1 1 1 1 1 1 0 -0 -0 -0 -0 -1 -1 -2 -2 -3 -3 -4 -5 -6 -6 -6
9 8 7 7 6 5 4 4 4 4 3 3 3 3 3 2 2 2 2 1 1 0 0 0 0 0 1 0 -0 -0 -0 -1 -1 -1 -2 -2 -3 -4 -4 -5 -5 -6 -6 -7
6 6 5 5 4 4 3 3 3 3 3 3 3 3 2 2 1 1 1 1 0 -0 -0 -0 -0 0 0 -0 -0 -0 -1 -1 -1 -2 -2 -3 -4 -4 -5 -5 -6 -6 -6 -6
4 4 4 3 3 3 3 3 3 3 3 2 2 2 1 1 1 1 0 -0 -1 -1 -0 -1 -1 -0 -0 -0 -1 -1 -1 -1 -2 -2 -3 -3 -4 -5 -5 -6 -6 -6 -6 -6
3 3 3 2 2 2 2 2 2 2 2 2 1 1 1 0 -0 -0 -0 -1 -1 -1 -1 -0 -0 -0 -1 -1 -1 -1 -1 -2 -2 -2 -3 -3 -4 -5 -6 -6 -6 -7 -7 -7
2 2 2 2 2 2 2 1 1 1 1 0 0 0 -0 -1 -1 -1 -1 -1 -1 -1 -0 -1 -1 -1 -1 -1 -2 -2 -2 -2 -2 -3 -3 -4 -4 -5 -6 -6 -6 -7 -7 -7
2 2 1 1 1 1 1 1 1 0 0 -0 -0 -1 -1 -1 -1 -1 -1 -1 -1 -1 -0 -1 -1 -1 -1 -1 -2 -2 -2 -2 -3 -3 -3 -4 -5 -5 -6 -6 -7 -7 -7 -7
2 2 1 1 1 0 0 0 0 -0 -0 -0 -1 -1 -1 -1 -2 -2 -2 -2 -2 -2 -1 -1 -1 -1 -1 -1 -2 -2 -2 -3 -3 -3 -4 -4 -5 -5 -6 -6 -7 -7 -7 -8
2 1 1 1 1 0 0 -0 -0 -1 -1 -1 -1 -1 -2 -1 -1 -2 -2 -2 -2 -2 -2 -2 -2 -2 -2 -2 -2 -2 -2 -3 -3 -4 -4 -5 -5 -6 -6 -7 -7 -7 -8 -8
1 1 1 0 0 -0 -0 -1 -1 -1 -1 -1 -1 -1 -2 -2 -2 -2 -3 -3 -2 -2 -2 -2 -2 -2 -2 -2 -2 -2 -3 -3 -4 -4 -4 -5 -5 -6 -6 -7 -7 -8 -8 -8
1 0 0 -0 -1 -1 -1 -1 -1 -1 -1 -1 -1 -2 -2 -2 -2 -3 -3 -3 -3 -3 -3 -3 -2 -2 -2 -2 -2 -3 -3 -4 -4 -4 -5 -5 -6 -6 -6 -7 -8 -8 -8 -8
0 -0 -1 -1 -1 -1 -1 -1 -1 -2 -2 -2 -2 -2 -3 -3 -3 -3 -3 -3 -3 -3 -3 -3 -3 -3 -2 -2 -3 -3 -3 -4 -4 -4 -5 -5 -6 -6 -7 -7 -8 -8 -8 -8
-0 -1 -1 -1 -1 -1 -2 -2 -2 -2 -2 -3 -3 -3 -3 -4 -4 -4 -4 -4 -3 -3 -3 -3 -3 -3 -3 -3 -3 -3 -4 -4 -4 -5 -5 -6 -6 -7 -7 -8 -8 -8 -8 -8
-1 -1 -1 -1 -2 -2 -2 -2 -3 -3 -3 -4 -4 -4 -4 -4 -4 -4 -4 -4 -4 -4 -3 -3 -3 -3 -3 -3 -3 -4 -4 -4 -4 -5 -5 -6 -6 -7 -7 -8 -8 -8 -8 -8
-2 -2 -2 -2 -2 -2 -3 -3 -4 -4 -4 -4 -4 -4 -4 -4 -5 -5 -5 -4 -4 -4 -4 -4 -3 -3 -3 -4 -4 -4 -4 -4 -5 -5 -6 -6 -7 -7 -7 -7 -8 -8 -8 -7
-2 -2 -2 -2 -2 -3 -3 -4 -5 -5 -5 -5 -5 -5 -5 -5 -5 -5 -5 -5 -5 -4 -4 -4 -4 -4 -4 -4 -4 -4 -4 -4 -5 -5 -6 -6 -7 -7 -7 -7 -7 -7 -7 -7
Wind_Speed
18 19 15 18 23 21 21 21 19 25 27 27 21 16 15 15 15 14 14 16 19 20 21 21 21 20 18 17 15 12 13 14 16 16 17 17 18 19 19 20 21 21 21 22
14 16 15 19 25 27 24 23 24 28 26 17 10 10 13 16 15 14 16 19 22 22 22 22 21 20 19 18 16 14 14 15 16 15 15 16 17 17 18 19 19 20 22 22
12 7 8 14 17 16 12 13 13 15 11 8 12 13 16 18 15 15 19 22 22 22 21 20 20 19 19 18 17 15 15 15 15 14 15 15 15 16 18 19 19 21 21 22
8 7 11 9 2 7 12 15 14 14 12 13 14 16 17 15 14 18 22 22 22 20 20 19 19 18 17 17 16 15 15 15 14 14 15 15 15 16 17 16 17 18 20 21
5 9 14 12 9 5 6 10 5 5 9 14 16 18 16 12 15 20 21 20 19 19 19 19 18 17 16 17 17 16 15 16 15 14 15 15 15 16 15 15 16 17 18 19
6 7 9 10 2 1 3 7 2 5 14 18 19 20 19 19 21 21 20 18 18 18 19 19 18 17 18 18 18 17 17 17 16 15 15 15 15 15 14 14 15 15 16 18
10 10 12 7 1 2 5 6 6 13 17 18 18 18 21 22 20 19 18 18 18 18 18 18 19 18 18 19 19 18 18 18 17 16 15 15 14 13 13 12 13 14 15 16
7 9 11 3 4 5 9 11 14 17 17 18 20 21 20 19 19 18 18 18 19 18 19 18 18 18 19 20 19 19 18 18 17 16 13 11 12 12 11 12 13 13 14 14
9 11 8 3 8 10 11 16 17 16 17 18 18 19 18 17 18 18 19 19 18 19 20 19 18 18 20 20 19 19 18 18 17 15 13 11 11 11 10 11 11 11 11 12
13 17 18 17 17 16 15 16 16 16 16 15 16 16 17 16 17 18 18 19 19 19 20 20 20 19 19 20 19 18 18 18 16 14 13 11 9 9 9 10 10 11 11 11
20 22 21 16 13 14 15 15 15 14 13 12 13 14 16 16 17 18 18 18 18 18 19 21 21 20 19 18 18 17 17 16 15 12 12 11 9 9 10 11 11 11 10 10
20 21 20 23 17 14 14 13 12 12 12 12 12 14 17 17 17 18 19 19 18 19 20 21 21 21 19 18 16 16 15 14 12 11 10 9 9 9 12 13 15 18 17 13
22 21 19 19 14 11 10 11 10 10 11 13 14 15 17 17 17 18 19 20 20 21 21 21 21 21 19 17 15 15 15 14 12 11 10 9 8 8 8 8 13 16 18 18
15 15 17 13 10 8 9 9 10 11 12 13 15 16 17 18 19 20 21 21 21 21 21 21 20 20 19 16 15 15 15 14 13 11 10 9 8 8 7 7 7 7 11 16
10 10 11 10 8 8 8 9 12 14 15 17 17 17 18 20 21 21 21 21 21 20 21 20 20 20 18 16 15 15 14 11 11 10 9 8 8 7 7 8 7 7 6 8
11 9 8 7 8 9 10 12 14 17 18 19 20 20 20 20 21 21 21 20 20 21 21 20 20 19 17 16 15 13 12 14 13 10 9 8 7 7 7 7 7 7 7 6
6 6 6 7 9 12 13 14 16 18 20 21 21 20 20 21 22 21 21 19 19 19 20 19 19 17 16 15 14 12 11 12 14 11 8 8 7 7 7 7 7 7 6 7
3 5 7 9 11 14 17 18 18 19 19 21 22 21 21 22 22 22 21 20 19 19 19 17 16 17 16 15 13 11 10 10 9 9 8 7 7 7 7 7 7 7 6 7
5 7 9 12 14 15 17 19 19 19 19 19 20 21 21 21 20 20 20 19 20 20 16 14 21 19 17 16 15 10 10 10 10 9 7 8 8 7 6 7 7 6 6 6
9 11 13 15 15 15 17 19 20 20 20 19 19 20 21 20 19 19 19 18 15 14 15 18 18 16 15 14 15 10 10 10 9 8 7 7 6 6 6 6 6 6 6 6
13 14 15 16 18 18 19 20 20 21 20 19 18 19 20 20 19 18 17 17 16 16 17 20 16 14 13 14 15 10 9 9 8 8 7 6 6 5 5 5 5 6 6 6
14 16 18 19 20 21 19 18 19 20 20 19 18 17 18 19 19 17 15 14 16 18 16 14 14 16 18 18 11 9 9 9 8 6 6 5 5 5 5 5 5 5 5 5
18 18 19 19 20 20 21 19 18 18 18 19 19 19 19 18 16 16 16 14 14 20 18 15 19 24 24 14 9 9 9 8 7 6 5 5 4 4 4 5 5 5 5 5
19 18 17 17 17 18 19 19 16 15 16 17 16 16 16 16 15 14 14 18 21 23 17 18 23 23 19 10 8 8 8 7 6 5 4 4 3 3 3 4 4 4 4 5
16 15 15 15 15 15 16 16 16 15 16 15 16 16 14 13 14 15 16 17 20 21 15 17 21 19 12 9 8 7 7 6 5 4 3 3 2 3 3 3 4 4 4 4
15 15 14 14 14 14 14 13 14 14 14 15 15 15 14 13 15 15 14 15 18 20 16 12 12 12 9 8 8 7 6 6 5 4 3 2 3 3 3 3 4 4 4 4
13 13 12 13 12 12 12 13 14 15 14 15 17 16 15 15 14 15 16 14 14 13 13 11 10 9 8 8 7 6 5 4 3 3 2 2 2 3 3 4 3 3 4 4
Wind_Direction
261 273 277 271 271 263 249 253 264 273 279 290 311 324 327 329 328 326 332 336 337 334 331 328 326 324 322 315 309 297 280 269 263 261 256 251 246 241 236 232 230 226 223 221
270 272 272 270 267 266 263 257 256 266 276 291 316 327 328 328 327 322 327 329 329 327 325 324 322 321 318 316 313 305 289 279 275 269 261 254 249 244 239 234 230 227 224 222
280 294 289 270 259 253 239 234 240 262 286 336 329 328 326 321 320 320 322 324 323 322 321 319 319 318 316 313 310 304 293 286 281 274 266 258 251 244 239 235 230 227 225 222
281 285 252 262 270 254 256 259 255 264 289 311 316 314 309 307 316 321 322 320 320 319 318 316 315 314 313 310 307 303 298 294 289 282 273 266 256 248 242 237 232 229 226 223
249 265 274 280 278 249 250 277 273 274 309 320 322 313 312 330 327 319 317 316 316 316 315 313 312 314 313 309 308 306 304 302 298 290 280 271 261 254 246 238 234 230 227 223
232 250 271 291 98 126 267 274 120 332 327 328 328 319 318 330 321 317 316 315 316 315 314 312 315 318 312 309 309 308 309 307 302 294 285 275 266 259 249 240 236 231 229 224
235 246 268 283 104 202 261 317 347 325 322 319 314 307 310 317 316 315 314 314 315 314 313 313 316 316 310 309 310 312 310 306 303 297 289 280 273 262 251 241 235 231 230 226
221 232 256 208 169 240 300 324 317 315 314 312 309 309 312 314 315 315 315 315 317 315 312 313 314 312 309 309 312 313 310 306 304 301 295 283 273 264 250 238 233 231 229 227
223 245 283 228 255 292 310 307 310 311 311 310 308 309 313 313 313 314 313 314 315 314 311 311 312 312 308 310 313 312 309 307 306 303 296 285 273 263 250 236 231 229 227 225
264 267 277 283 288 292 298 303 308 308 308 308 307 310 312 313 312 313 312 313 314 313 310 311 313 311 307 309 312 311 308 308 307 303 297 287 272 257 246 237 230 227 226 225
268 279 289 286 290 299 306 306 307 309 308 307 307 307 311 311 311 311 311 310 311 308 307 308 311 310 310 310 312 310 308 306 305 301 296 290 276 261 250 241 234 228 228 225
273 287 295 299 309 310 306 306 309 309 308 310 308 306 308 308 308 308 308 309 307 306 307 309 311 310 310 311 311 308 306 305 304 302 297 288 283 274 251 246 245 238 235 232
276 292 296 300 306 309 307 308 308 306 305 307 309 308 307 306 306 305 305 307 308 309 308 308 309 308 310 312 310 305 302 301 300 296 292 287 281 276 275 257 244 242 238 234
291 296 295 300 303 310 310 309 308 305 305 305 306 307 307 306 306 306 307 308 309 308 307 307 308 308 311 312 308 303 300 298 296 292 288 282 276 269 265 262 256 244 235 230
296 298 294 297 299 307 313 316 315 313 314 314 313 311 309 308 307 306 306 307 308 307 307 309 309 308 311 311 306 303 300 297 295 291 285 278 271 264 258 252 249 244 233 223
304 303 300 302 308 316 320 320 317 314 314 312 311 311 309 305 303 303 305 309 310 309 308 308 305 306 310 309 306 303 298 295 296 291 285 276 267 259 253 247 241 237 230 219
307 312 321 321 320 319 317 315 311 309 309 308 308 308 307 306 305 306 308 311 308 304 303 302 302 305 307 306 304 302 300 299 296 290 281 273 265 256 250 243 237 234 229 218
305 302 306 310 312 312 311 310 307 307 306 306 307 307 307 308 307 307 308 309 307 305 303 304 306 309 307 305 303 301 299 297 295 287 280 271 264 254 247 240 234 233 228 217
316 308 306 305 303 301 301 302 304 304 303 304 305 306 306 304 302 303 306 307 306 306 306 309 309 310 306 305 304 300 298 296 293 286 278 271 265 252 241 235 230 225 220 210
299 299 299 299 298 294 296 299 302 304 305 307 305 304 304 304 304 305 305 302 297 297 302 307 309 307 305 304 303 299 296 294 291 287 281 271 264 255 241 231 225 219 213 210
300 298 296 297 300 300 300 301 302 302 304 303 301 299 300 302 303 304 303 304 303 306 309 309 309 306 307 309 307 302 297 294 291 287 282 274 265 256 241 227 218 212 209 206
298 300 301 302 302 302 303 303 300 299 300 300 299 298 300 302 304 303 296 295 302 308 311 308 307 307 313 314 307 302 299 296 291 286 281 272 261 249 234 220 213 207 204 203
302 301 301 301 300 301 301 299 297 297 297 298 299 301 301 301 302 302 303 304 307 309 311 305 306 312 316 316 306 303 301 298 292 287 281 271 257 242 227 215 209 202 198 196
298 299 296 296 297 297 297 298 297 296 294 294 293 292 295 299 300 299 298 302 307 308 307 304 309 314 318 313 305 303 301 298 293 287 279 268 250 232 217 206 199 194 192 190
292 291 291 293 295 296 297 299 299 298 299 300 299 300 298 297 298 302 303 304 307 310 308 308 312 315 315 306 304 302 301 296 291 288 277 256 234 217 206 196 189 185 183 182
289 291 292 290 289 292 296 298 299 301 304 304 304 306 306 304 302 302 303 305 306 308 309 308 309 310 310 307 303 302 300 298 294 286 269 242 216 203 194 186 179 177 174 172
287 288 289 291 292 293 295 296 297 299 301 302 304 306 307 306 305 307 308 308 309 309 309 308 309 308 308 306 303 302 299 294 288 277 251 217 197 187 180 175 170 164 162 161
Height
1523 1519 1522 1521 1517 1514 1515 1509 1504 1487 1480 1473 1474 1477 1477 1475 1472 1468 1465 1462 1458 1454 1449 1444 1439 1434 1428 1423 1417 1411 1405 1399 1394 1390 1385 1380 1376 1372 1370 1368 1366 1367 1367 1368
1523 1519 1520 1518 1508 1502 1500 1497 1493 1486 1481 1476 1479 1478 1476 1473 1469 1466 1463 1459 1454 1450 1444 1439 1433 1427 1421 1415 1409 1403 1397 1391 1386 1380 1375 1370 1366 1363 1360 1357 1356 1356 1356 1357
1517 1518 1520 1508 1491 1489 1488 1485 1484 1478 1473 1476 1476 1475 1473 1469 1465 1463 1459 1455 1450 1445 1439 1433 1427 1421 1414 1408 1402 1396 1389 1383 1377 1371 1366 1361 1356 1352 1349 1347 1346 1344 1345 1346
1521 1519 1518 1486 1482 1483 1481 1478 1477 1476 1476 1477 1475 1473 1470 1465 1462 1459 1455 1449 1444 1438 1433 1427 1421 1414 1408 1401 1395 1388 1381 1375 1369 1363 1357 1352 1346 1342 1339 1337 1336 1335 1335 1336
1523 1511 1494 1483 1480 1481 1481 1474 1474 1474 1475 1474 1471 1466 1462 1461 1459 1455 1450 1444 1439 1433 1427 1420 1414 1408 1400 1394 1387 1381 1374 1368 1361 1355 1348 1343 1338 1334 1331 1328 1326 1325 1326 1327
1520 1520 1501 1476 1480 1481 1481 1474 1473 1473 1472 1470 1466 1461 1455 1457 1454 1449 1444 1438 1432 1426 1420 1414 1407 1400 1393 1386 1379 1373 1366 1360 1353 1347 1340 1334 1329 1325 1322 1320 1318 1318 1317 1318
1514 1510 1488 1476 1481 1482 1480 1470 1473 1471 1469 1467 1465 1461 1455 1451 1447 1443 1437 1432 1426 1420 1413 1407 1400 1393 1385 1378 1372 1365 1358 1352 1345 1339 1333 1327 1322 1318 1314 1312 1311 1310 1310 1311
1506 1505 1491 1476 1479 1477 1472 1471 1470 1468 1466 1463 1459 1455 1450 1446 1441 1436 1430 1425 1419 1413 1406 1400 1393 1385 1377 1371 1365 1358 1350 1344 1337 1331 1325 1320 1315 1310 1307 1305 1304 1303 1303 1304
1491 1482 1475 1476 1474 1472 1471 1469 1466 1464 1461 1458 1453 1449 1445 1440 1435 1430 1425 1419 1413 1406 1398 1392 1386 1379 1371 1363 1357 1349 1343 1336 1330 1324 1318 1313 1308 1304 1301 1299 1297 1296 1297 1297
1483 1472 1473 1472 1471 1470 1468 1466 1462 1460 1457 1453 1449 1444 1440 1435 1430 1424 1418 1412 1405 1398 1390 1383 1377 1371 1364 1357 1350 1342 1336 1329 1323 1317 1311 1306 1302 1298 1295 1292 1290 1290 1290 1291
1475 1470 1469 1466 1467 1466 1463 1461 1458 1455 1451 1448 1444 1439 1435 1430 1424 1418 1412 1405 1398 1390 1382 1375 1369 1363 1357 1350 1343 1336 1329 1323 1317 1311 1305 1300 1295 1292 1289 1286 1285 1284 1284 1286
1467 1466 1465 1462 1463 1461 1459 1456 1453 1450 1446 1443 1439 1435 1430 1424 1418 1411 1404 1397 1390 1383 1376 1368 1362 1355 1349 1343 1337 1330 1323 1317 1311 1305 1300 1294 1290 1286 1282 1281 1279 1279 1279 1281
1467 1464 1463 1460 1458 1456 1454 1451 1448 1445 1442 1438 1434 1429 1424 1417 1411 1404 1397 1390 1383 1376 1368 1361 1355 1348 1342 1336 1330 1324 1317 1311 1305 1299 1294 1289 1285 1281 1277 1275 1274 1273 1274 1275
1465 1462 1458 1456 1454 1452 1450 1447 1444 1441 1437 1433 1428 1423 1417 1410 1403 1397 1390 1383 1376 1368 1361 1354 1348 1341 1335 1329 1323 1317 1311 1305 1299 1294 1289 1284 1280 1276 1273 1271 1270 1268 1269 1270
1461 1458 1455 1452 1450 1448 1446 1443 1440 1435 1431 1426 1422 1416 1410 1403 1395 1388 1381 1375 1368 1361 1354 1348 1341 1334 1329 1323 1316 1310 1305 1299 1293 1288 1283 1278 1275 1271 1269 1267 1266 1265 1265 1266
1456 1453 1451 1449 1447 1445 1442 1439 1435 1430 1425 1419 1414 1408 1402 1395 1387 1380 1374 1368 1361 1353 1347 1340 1334 1328 1322 1316 1310 1303 1298 1293 1288 1282 1277 1273 1270 1267 1265 1263 1262 1261 1262 1263
1452 1450 1448 1447 1444 1442 1438 1435 1430 1424 1418 1412 1406 1399 1393 1386 1379 1372 1366 1360 1354 1347 1340 1334 1327 1321 1316 1310 1304 1297 1291 1286 1281 1276 1272 1268 1265 1262 1260 1259 1258 1257 1258 1259
1451 1449 1448 1445 1442 1438 1433 1429 1423 1418 1411 1405 1398 1392 1385 1379 1371 1364 1358 1351 1345 1339 1334 1328 1322 1315 1309 1303 1297 1291 1285 1280 1275 1271 1267 1263 1260 1257 1256 1254 1254 1254 1254 1255
1449 1446 1444 1441 1437 1432 1427 1421 1415 1410 1403 1397 1391 1384 1378 1371 1364 1357 1351 1344 1338 1331 1325 1321 1315 1308 1302 1297 1291 1285 1280 1274 1269 1265 1261 1258 1255 1253 1251 1250 1249 1250 1251 1252
1445 1442 1438 1434 1430 1425 1419 1413 1408 1402 1396 1390 1383 1376 1369 1363 1357 1350 1343 1337 1332 1326 1319 1313 1307 1302 1296 1290 1285 1279 1274 1269 1264 1260 1256 1253 1250 1248 1247 1246 1246 1246 1247 1248
1439 1435 1431 1426 1421 1417 1412 1406 1400 1393 1388 1382 1376 1368 1362 1355 1349 1343 1336 1329 1324 1319 1313 1307 1301 1295 1290 1284 1279 1274 1268 1263 1259 1255 1252 1249 1246 1244 1243 1242 1242 1243 1244 1245
1432 1428 1424 1419 1414 1408 1403 1398 1392 1385 1379 1373 1367 1361 1354 1347 1342 1336 1330 1325 1317 1312 1306 1300 1295 1290 1284 1279 1273 1268 1263 1258 1254 1251 1247 1245 1243 1241 1240 1239 1240 1240 1241 1243
1425 1421 1416 1411 1405 1399 1393 1388 1383 1377 1371 1365 1359 1353 1347 1341 1335 1329 1321 1316 1311 1305 1300 1294 1289 1283 1278 1272 1267 1262 1258 1254 1250 1247 1244 1241 1239 1238 1237 1237 1237 1238 1239 1241
1416 1412 1407 1401 1396 1390 1383 1378 1373 1368 1362 1356 1351 1345 1340 1333 1327 1322 1317 1310 1304 1299 1293 1287 1282 1277 1272 1267 1262 1258 1254 1250 1246 1243 1240 1238 1237 1236 1235 1235 1236 1237 1238 1240
1407 1402 1397 1392 1387 1381 1376 1370 1364 1358 1353 1348 1342 1337 1333 1328 1321 1314 1309 1303 1297 1292 1286 1281 1276 1271 1266 1261 1257 1254 1250 1247 1243 1240 1238 1236 1235 1234 1234 1234 1235 1236 1237 1239
1397 1393 1388 1384 1380 1374 1368 1363 1357 1351 1346 1340 1334 1329 1324 1319 1314 1308 1302 1296 1291 1286 1280 1275 1270 1265 1261 1257 1253 1250 1246 1243 1240 1238 1236 1234 1233 1233 1233 1233 1234 1235 1237 1238
1388 1384 1379 1375 1371 1367 1361 1356 1350 1344 1339 1334 1327 1322 1317 1312 1307 1301 1296 1291 1285 1280 1275 1270 1265 1261 1257 1253 1249 1246 1243 1240 1238 1236 1234 1233 1232 1232 1232 1233 1234 1235 1237 1238